Weather History for Homer, AK

Change the Weather History Date:

Wednesday, March 20, 2013

  Actual Average Record
Temperature  
Mean Temperature 22 °F -  
Max Temperature 28 °F 38 °F 49 °F (1941)
Min Temperature 17 °F 24 °F -3 °F (1959)
Degree Days  
Heating Degree Days 43    
Moisture  
Dew Point 3 °F    
Average Humidity 42    
Maximum Humidity 55    
Minimum Humidity 34    
Precipitation  
Precipitation 0.00 in - - ()
Sea Level Pressure  
Sea Level Pressure 29.94 in    
Wind  
Wind Speed 8 mph (NE)    
Max Wind Speed 13 mph    
Max Gust Speed 21 mph    
Visibility 10 miles    
Events      
Averages and records for this station are not official NWS values.
T = Trace of Precipitation, MM = Missing Value Source: NWS Daily Summary

Daily Weather History Graph

Daily Weather History Graph

Search for Another Location

Airport:

Trip Planner

Search our weather history database for the weather conditions in past years. The results will help you decide how hot, cold, wet, or windy it might be!

Date:

Astronomy

Mar. 20, 2013 Rise Set
Actual Time 8:06 AM AKDT 8:21 PM AKDT
Civil Twilight 7:24 AM AKDT 9:02 PM AKDT
Nautical Twilight 6:35 AM AKDT 9:52 PM AKDT
Astronomical Twilight 5:42 AM AKDT 10:46 PM AKDT
Moon 12:45 PM AKDT (3/20) 5:14 AM AKDT (3/20)
Length of Visible Light 13h 37m
Length of Day
12h 15m
First Quarter, 60% of the Moon is Illuminated
Mar 20
First Quarter
Mar 27
Full
Apr 2
Last Quarter
Apr 10
New
Apr 18
First Quarter

Hourly Weather History & Observations

Time (AKDT) Temp. Windchill Dew Point Humidity Pressure Visibility Wind Dir Wind Speed Gust Speed Precip Events Conditions
12:53 AM 21.9 °F 11.7 °F 1.0 °F 40% 29.90 in 10.0 mi North 9.2 mph - N/A   Clear
1:53 AM 21.0 °F 9.9 °F -0.9 °F 38% 29.90 in 10.0 mi North 10.4 mph - N/A   Clear
2:53 AM 21.0 °F 8.6 °F -2.9 °F 35% 29.90 in 10.0 mi NNE 12.7 mph 20.7 mph N/A   Clear
3:53 AM 19.0 °F 7.5 °F -0.9 °F 42% 29.91 in 10.0 mi NE 10.4 mph - N/A   Clear
4:53 AM 19.0 °F 9.0 °F -2.0 °F 40% 29.93 in 10.0 mi NNE 8.1 mph - N/A   Clear
5:53 AM 17.1 °F 8.7 °F -0.9 °F 45% 29.93 in 10.0 mi NE 5.8 mph - N/A   Clear
6:53 AM 17.1 °F 10.0 °F -2.0 °F 43% 29.93 in 10.0 mi NE 4.6 mph - N/A   Clear
7:53 AM 18.0 °F 12.7 °F -4.0 °F 38% 29.94 in 10.0 mi NE 3.5 mph - N/A   Clear
8:53 AM 17.1 °F 10.0 °F -2.0 °F 43% 29.93 in 10.0 mi NE 4.6 mph - N/A   Clear
9:53 AM 21.0 °F 13.4 °F -2.9 °F 35% 29.93 in 10.0 mi NE 5.8 mph - N/A   Clear
10:53 AM 21.9 °F 11.7 °F -0.9 °F 37% 29.94 in 10.0 mi ENE 9.2 mph - N/A   Clear
11:53 AM 23.0 °F 13.1 °F -0.4 °F 36% 29.94 in 10.0 mi East 9.2 mph - N/A   Clear
12:53 PM 24.8 °F 15.3 °F 5.0 °F 43% 29.94 in 10.0 mi East 9.2 mph - N/A   Clear
1:53 PM 26.1 °F 17.6 °F 1.9 °F 35% 29.95 in 10.0 mi East 8.1 mph - N/A   Clear
2:53 PM 26.1 °F 21.9 °F 1.0 °F 34% 29.95 in 10.0 mi South 3.5 mph - N/A   Clear
3:53 PM 27.0 °F 21.6 °F 6.1 °F 41% 29.95 in 10.0 mi SSW 4.6 mph - N/A   Clear
4:53 PM 27.0 °F 16.7 °F 8.1 °F 45% 29.94 in 10.0 mi WSW 11.5 mph - N/A   Clear
5:53 PM 27.0 °F 18.7 °F 8.1 °F 45% 29.95 in 10.0 mi WSW 8.1 mph - N/A   Clear
6:53 PM 27.0 °F 23.0 °F 10.0 °F 49% 29.94 in 10.0 mi SSW 3.5 mph - N/A   Clear
7:53 PM 26.1 °F - 10.9 °F 53% 29.93 in 10.0 mi Calm Calm - N/A   Partly Cloudy
8:53 PM 25.0 °F 20.7 °F 10.9 °F 55% 29.94 in 10.0 mi ENE 3.5 mph - N/A   Partly Cloudy
9:53 PM 27.0 °F 18.7 °F 12.0 °F 53% 29.95 in 10.0 mi West 8.1 mph - N/A   Clear
10:53 PM 26.1 °F 21.9 °F 9.0 °F 49% 29.96 in 10.0 mi NNW 3.5 mph - N/A   Overcast
11:53 PM 25.0 °F 16.3 °F 6.1 °F 45% 29.98 in 10.0 mi NNW 8.1 mph - N/A   Overcast